Time,TemperatureF,DewpointF,PressureIn,WindDirection,WindDirectionDegrees,WindSpeedMPH,WindSpeedGustMPH,Humidity,HourlyPrecipIn,Conditions,Clouds,dailyrainin,SoftwareType,DateUTC
2013-05-25 00:01:00,34.5,30.0,30.40,NNW,337,0.0,0.0,84,0.00,,,0.00,WUHU21636XXSP,2013-05-25 04:01:00,
2013-05-25 00:06:00,34.5,30.0,30.40,NNW,337,0.0,0.0,84,0.00,,,0.00,WUHU21636XXSP,2013-05-25 04:06:00,
2013-05-25 00:11:00,34.5,30.0,30.40,NNW,337,0.0,0.0,84,0.00,,,0.00,WUHU21636XXSP,2013-05-25 04:11:00,
2013-05-25 00:16:00,34.3,29.8,30.40,NNW,337,0.0,0.0,84,0.00,,,0.00,WUHU21636XXSP,2013-05-25 04:16:00,
2013-05-25 00:21:00,34.2,30.0,30.40,NNW,337,0.0,0.0,85,0.00,,,0.00,WUHU21636XXSP,2013-05-25 04:21:00,
2013-05-25 00:26:00,33.8,29.7,30.40,NNW,337,0.0,0.0,85,0.00,,,0.00,WUHU21636XXSP,2013-05-25 04:26:00,
2013-05-25 00:31:00,33.6,29.5,30.40,NNW,337,0.0,0.0,85,0.00,,,0.00,WUHU21636XXSP,2013-05-25 04:31:00,
2013-05-25 00:36:00,33.4,29.3,30.40,NNW,337,0.0,0.0,85,0.00,,,0.00,WUHU21636XXSP,2013-05-25 04:36:00,
2013-05-25 00:41:00,33.1,29.3,30.40,NNW,337,0.0,0.0,86,0.00,,,0.00,WUHU21636XXSP,2013-05-25 04:41:00,
2013-05-25 00:46:00,32.9,29.1,30.39,NNW,337,0.0,0.0,86,0.00,,,0.00,WUHU21636XXSP,2013-05-25 04:46:00,
2013-05-25 00:51:00,32.9,29.1,30.40,NNW,337,0.0,0.0,86,0.00,,,0.00,WUHU21636XXSP,2013-05-25 04:51:00,
2013-05-25 00:56:00,33.1,29.5,30.40,NNW,337,0.0,0.0,87,0.00,,,0.00,WUHU21636XXSP,2013-05-25 04:56:00,
2013-05-25 01:01:00,33.1,29.5,30.40,NNW,337,0.0,0.0,87,0.00,,,0.00,WUHU21636XXSP,2013-05-25 05:01:00,
2013-05-25 01:06:00,33.1,29.5,30.40,NNW,337,0.0,0.0,87,0.00,,,0.00,WUHU21636XXSP,2013-05-25 05:06:00,
2013-05-25 01:11:00,32.7,29.1,30.40,NNW,337,0.0,0.0,87,0.00,,,0.00,WUHU21636XXSP,2013-05-25 05:11:00,
2013-05-25 01:16:00,32.5,28.9,30.40,NNW,337,0.0,0.0,87,0.00,,,0.00,WUHU21636XXSP,2013-05-25 05:16:00,
2013-05-25 01:21:00,32.4,28.9,30.40,NNW,337,0.0,0.0,87,0.00,,,0.00,WUHU21636XXSP,2013-05-25 05:21:00,
2013-05-25 01:26:00,32.4,28.9,30.40,NNW,337,0.0,0.0,87,0.00,,,0.00,WUHU21636XXSP,2013-05-25 05:26:00,
2013-05-25 01:31:00,32.2,28.8,30.40,NNW,337,0.0,0.0,87,0.00,,,0.00,WUHU21636XXSP,2013-05-25 05:31:00,
2013-05-25 01:36:00,31.8,28.4,30.40,NNW,337,0.0,0.0,87,0.00,,,0.00,WUHU21636XXSP,2013-05-25 05:36:00,
2013-05-25 01:41:00,31.8,28.2,30.40,NNW,337,0.0,0.0,87,0.00,,,0.00,WUHU21636XXSP,2013-05-25 05:41:00,
2013-05-25 01:46:00,31.6,28.2,30.40,NNW,337,0.0,0.0,87,0.00,,,0.00,WUHU21636XXSP,2013-05-25 05:46:00,
2013-05-25 01:51:00,31.6,28.2,30.40,NNW,337,0.0,0.0,87,0.00,,,0.00,WUHU21636XXSP,2013-05-25 05:51:00,
2013-05-25 01:56:00,31.6,28.2,30.39,NNW,337,0.0,0.0,87,0.00,,,0.00,WUHU21636XXSP,2013-05-25 05:56:00,
2013-05-25 02:01:00,31.8,28.4,30.40,NNW,337,0.0,0.0,87,0.00,,,0.00,WUHU21636XXSP,2013-05-25 06:01:00,
2013-05-25 02:06:00,31.8,28.4,30.40,NNW,337,0.0,0.0,87,0.00,,,0.00,WUHU21636XXSP,2013-05-25 06:06:00,
2013-05-25 02:11:00,31.6,28.2,30.40,NNW,337,0.0,0.0,87,0.00,,,0.00,WUHU21636XXSP,2013-05-25 06:11:00,
2013-05-25 02:16:00,31.6,28.2,30.40,NNW,337,0.0,0.0,87,0.00,,,0.00,WUHU21636XXSP,2013-05-25 06:16:00,
2013-05-25 02:21:00,31.6,28.2,30.39,NNW,337,0.0,0.0,87,0.00,,,0.00,WUHU21636XXSP,2013-05-25 06:21:00,
2013-05-25 02:26:00,31.5,28.0,30.39,NNW,337,0.0,0.0,87,0.00,,,0.00,WUHU21636XXSP,2013-05-25 06:26:00,
2013-05-25 02:31:00,31.5,28.0,30.39,NNW,337,0.0,0.0,87,0.00,,,0.00,WUHU21636XXSP,2013-05-25 06:31:00,
2013-05-25 02:36:00,31.6,28.2,30.39,NNW,337,0.0,0.0,88,0.00,,,0.00,WUHU21636XXSP,2013-05-25 06:36:00,
2013-05-25 02:41:00,31.5,28.2,30.39,NNW,337,0.0,0.0,88,0.00,,,0.00,WUHU21636XXSP,2013-05-25 06:41:00,
2013-05-25 02:46:00,31.1,27.9,30.39,NNW,337,0.0,0.0,88,0.00,,,0.00,WUHU21636XXSP,2013-05-25 06:46:00,
2013-05-25 02:51:00,30.9,27.7,30.40,NNW,337,0.0,0.0,88,0.00,,,0.00,WUHU21636XXSP,2013-05-25 06:51:00,
2013-05-25 02:56:00,30.9,27.7,30.40,NNW,337,0.0,0.0,88,0.00,,,0.00,WUHU21636XXSP,2013-05-25 06:56:00,
2013-05-25 03:01:00,30.9,27.7,30.40,NNW,337,0.0,0.0,88,0.00,,,0.00,WUHU21636XXSP,2013-05-25 07:01:00,
2013-05-25 03:06:00,30.9,27.7,30.39,NNW,337,0.0,0.0,88,0.00,,,0.00,WUHU21636XXSP,2013-05-25 07:06:00,
2013-05-25 03:11:00,30.9,27.7,30.40,NNW,337,0.0,0.0,88,0.00,,,0.00,WUHU21636XXSP,2013-05-25 07:11:00,
2013-05-25 03:16:00,30.7,27.5,30.40,NNW,337,0.0,0.0,88,0.00,,,0.00,WUHU21636XXSP,2013-05-25 07:16:00,
2013-05-25 03:20:00,30.7,27.5,30.39,NNW,337,0.0,0.0,88,0.00,,,0.00,WUHU21636XXSP,2013-05-25 07:20:00,
2013-05-25 03:25:00,30.7,27.5,30.40,NNW,337,0.0,0.0,88,0.00,,,0.00,WUHU21636XXSP,2013-05-25 07:25:00,
2013-05-25 03:30:00,30.7,27.5,30.39,NNW,337,0.0,0.0,88,0.00,,,0.00,WUHU21636XXSP,2013-05-25 07:30:00,
2013-05-25 03:35:00,30.4,27.1,30.39,NNW,337,0.0,0.0,88,0.00,,,0.00,WUHU21636XXSP,2013-05-25 07:35:00,
2013-05-25 03:40:00,30.4,27.1,30.39,NNW,337,0.0,0.0,88,0.00,,,0.00,WUHU21636XXSP,2013-05-25 07:40:00,
2013-05-25 03:45:00,30.4,27.1,30.39,NNW,337,0.0,0.0,88,0.00,,,0.00,WUHU21636XXSP,2013-05-25 07:45:00,
2013-05-25 03:50:00,30.0,26.8,30.39,NNW,337,0.0,0.0,88,0.00,,,0.00,WUHU21636XXSP,2013-05-25 07:50:00,
2013-05-25 03:55:00,30.0,26.8,30.39,NNW,337,0.0,0.0,88,0.00,,,0.00,WUHU21636XXSP,2013-05-25 07:55:00,
2013-05-25 04:00:00,30.0,26.8,30.39,NNW,337,0.0,0.0,88,0.00,,,0.00,WUHU21636XXSP,2013-05-25 08:00:00,
2013-05-25 04:05:00,30.0,26.8,30.39,NNW,337,0.0,0.0,88,0.00,,,0.00,WUHU21636XXSP,2013-05-25 08:05:00,
2013-05-25 04:10:00,30.4,27.1,30.39,NNW,337,0.0,0.0,88,0.00,,,0.00,WUHU21636XXSP,2013-05-25 08:10:00,
2013-05-25 04:15:00,30.4,27.1,30.39,NNW,337,0.0,0.0,88,0.00,,,0.00,WUHU21636XXSP,2013-05-25 08:15:00,
2013-05-25 04:20:00,30.7,27.5,30.39,NNW,337,0.0,0.0,88,0.00,,,0.00,WUHU21636XXSP,2013-05-25 08:20:00,
2013-05-25 04:25:00,30.7,27.5,30.39,NNW,337,0.0,0.0,88,0.00,,,0.00,WUHU21636XXSP,2013-05-25 08:25:00,
2013-05-25 04:30:00,30.6,27.3,30.40,NNW,337,0.0,0.0,88,0.00,,,0.00,WUHU21636XXSP,2013-05-25 08:30:00,
2013-05-25 04:35:00,30.4,27.1,30.40,NNW,337,0.0,0.0,88,0.00,,,0.00,WUHU21636XXSP,2013-05-25 08:35:00,
2013-05-25 04:40:00,30.0,26.8,30.40,NNW,337,0.0,0.0,88,0.00,,,0.00,WUHU21636XXSP,2013-05-25 08:40:00,
2013-05-25 04:45:00,30.0,26.8,30.40,NNW,337,0.0,0.0,88,0.00,,,0.00,WUHU21636XXSP,2013-05-25 08:45:00,
2013-05-25 04:50:00,30.0,26.8,30.40,NNW,337,0.0,0.0,88,0.00,,,0.00,WUHU21636XXSP,2013-05-25 08:50:00,
2013-05-25 04:55:00,30.0,26.8,30.40,NNW,337,0.0,0.0,88,0.00,,,0.00,WUHU21636XXSP,2013-05-25 08:55:00,
2013-05-25 05:00:00,29.8,26.6,30.40,NNW,337,0.0,0.0,88,0.00,,,0.00,WUHU21636XXSP,2013-05-25 09:00:00,
2013-05-25 05:05:00,29.5,26.2,30.40,NNW,337,0.0,0.0,88,0.00,,,0.00,WUHU21636XXSP,2013-05-25 09:05:00,
2013-05-25 05:10:00,29.5,26.2,30.41,NNW,337,0.0,0.0,88,0.00,,,0.00,WUHU21636XXSP,2013-05-25 09:10:00,
2013-05-25 05:15:00,29.3,26.1,30.41,NNW,337,0.0,0.0,88,0.00,,,0.00,WUHU21636XXSP,2013-05-25 09:15:00,
2013-05-25 05:20:00,28.9,25.7,30.41,NNW,337,0.0,0.0,88,0.00,,,0.00,WUHU21636XXSP,2013-05-25 09:20:00,
2013-05-25 05:25:00,28.9,25.7,30.41,NNW,337,0.0,0.0,88,0.00,,,0.00,WUHU21636XXSP,2013-05-25 09:25:00,
2013-05-25 05:30:00,28.9,25.7,30.41,NNW,337,0.0,0.0,88,0.00,,,0.00,WUHU21636XXSP,2013-05-25 09:30:00,
2013-05-25 05:35:00,28.9,25.7,30.41,NNW,337,0.0,0.0,88,0.00,,,0.00,WUHU21636XXSP,2013-05-25 09:35:00,
2013-05-25 05:40:00,28.9,25.7,30.41,NNW,337,0.0,0.0,88,0.00,,,0.00,WUHU21636XXSP,2013-05-25 09:40:00,
2013-05-25 05:45:00,28.9,25.7,30.41,NNW,337,0.0,0.0,88,0.00,,,0.00,WUHU21636XXSP,2013-05-25 09:45:00,
2013-05-25 05:50:00,28.9,25.7,30.41,NNW,337,0.0,0.0,88,0.00,,,0.00,WUHU21636XXSP,2013-05-25 09:50:00,
2013-05-25 05:55:00,28.9,25.7,30.41,NNW,337,0.0,0.0,88,0.00,,,0.00,WUHU21636XXSP,2013-05-25 09:55:00,
2013-05-25 06:00:00,29.1,25.9,30.41,NNW,337,0.0,0.0,88,0.00,,,0.00,WUHU21636XXSP,2013-05-25 10:00:00,
2013-05-25 06:05:00,29.1,25.9,30.41,NNW,337,0.0,0.0,88,0.00,,,0.00,WUHU21636XXSP,2013-05-25 10:05:00,
2013-05-25 06:10:00,29.1,25.9,30.41,NNW,337,0.0,0.0,88,0.00,,,0.00,WUHU21636XXSP,2013-05-25 10:10:00,
2013-05-25 06:15:00,29.5,26.2,30.41,NNW,337,0.0,0.0,88,0.00,,,0.00,WUHU21636XXSP,2013-05-25 10:15:00,
2013-05-25 06:20:00,29.7,26.4,30.41,NNW,337,0.0,0.0,88,0.00,,,0.00,WUHU21636XXSP,2013-05-25 10:20:00,
2013-05-25 06:25:00,29.8,26.6,30.41,NNW,337,0.0,0.0,88,0.00,,,0.00,WUHU21636XXSP,2013-05-25 10:25:00,
2013-05-25 06:30:00,29.8,26.6,30.41,NNW,337,0.0,0.0,88,0.00,,,0.00,WUHU21636XXSP,2013-05-25 10:30:00,
2013-05-25 06:35:00,29.5,26.2,30.41,NNW,337,0.0,0.0,88,0.00,,,0.00,WUHU21636XXSP,2013-05-25 10:35:00,
2013-05-25 06:40:00,29.5,26.2,30.41,NNW,337,0.0,0.0,88,0.00,,,0.00,WUHU21636XXSP,2013-05-25 10:40:00,
2013-05-25 06:45:00,29.5,26.2,30.41,NNW,337,0.0,0.0,88,0.00,,,0.00,WUHU21636XXSP,2013-05-25 10:45:00,
2013-05-25 06:50:00,29.3,26.1,30.41,NNW,337,0.0,0.0,88,0.00,,,0.00,WUHU21636XXSP,2013-05-25 10:50:00,
2013-05-25 06:55:00,29.3,26.1,30.41,NNW,337,0.0,0.0,88,0.00,,,0.00,WUHU21636XXSP,2013-05-25 10:55:00,
2013-05-25 07:00:00,29.1,25.9,30.41,NNW,337,0.0,0.0,88,0.00,,,0.00,WUHU21636XXSP,2013-05-25 11:00:00,
2013-05-25 07:05:00,29.3,26.1,30.41,NNW,337,0.0,0.0,88,0.00,,,0.00,WUHU21636XXSP,2013-05-25 11:05:00,
2013-05-25 07:10:00,29.3,26.1,30.41,NNW,337,0.0,0.0,88,0.00,,,0.00,WUHU21636XXSP,2013-05-25 11:10:00,
2013-05-25 07:15:00,29.5,26.2,30.42,NNW,337,0.0,0.0,88,0.00,,,0.00,WUHU21636XXSP,2013-05-25 11:15:00,
2013-05-25 07:20:00,29.5,26.2,30.42,NNW,337,0.0,0.0,88,0.00,,,0.00,WUHU21636XXSP,2013-05-25 11:20:00,
2013-05-25 07:25:00,29.8,26.6,30.42,NNW,337,0.0,0.0,88,0.00,,,0.00,WUHU21636XXSP,2013-05-25 11:25:00,
2013-05-25 07:30:00,30.0,26.8,30.42,NNW,337,0.0,0.0,88,0.00,,,0.00,WUHU21636XXSP,2013-05-25 11:30:00,
2013-05-25 07:35:00,30.6,27.3,30.42,NNW,337,0.0,0.0,88,0.00,,,0.00,WUHU21636XXSP,2013-05-25 11:35:00,
2013-05-25 07:40:00,30.7,27.7,30.43,NNW,337,0.0,0.0,88,0.00,,,0.00,WUHU21636XXSP,2013-05-25 11:40:00,
2013-05-25 07:45:00,31.1,28.0,30.42,NNW,337,0.0,0.0,88,0.00,,,0.00,WUHU21636XXSP,2013-05-25 11:45:00,
2013-05-25 07:50:00,32.0,28.8,30.42,NNW,337,0.0,0.0,88,0.00,,,0.00,WUHU21636XXSP,2013-05-25 11:50:00,
2013-05-25 07:55:00,32.7,29.8,30.43,NNW,337,0.0,0.0,89,0.00,,,0.00,WUHU21636XXSP,2013-05-25 11:55:00,
2013-05-25 08:00:00,33.4,30.2,30.44,NNW,337,0.0,0.0,88,0.00,,,0.00,WUHU21636XXSP,2013-05-25 12:00:00,
2013-05-25 08:05:00,34.2,30.7,30.44,NNW,337,0.0,0.0,88,0.00,,,0.00,WUHU21636XXSP,2013-05-25 12:05:00,
2013-05-25 08:10:00,34.5,31.1,30.44,NNW,337,0.0,0.0,88,0.00,,,0.00,WUHU21636XXSP,2013-05-25 12:10:00,
2013-05-25 08:15:00,35.4,32.0,30.44,NNW,337,0.0,0.0,88,0.00,,,0.00,WUHU21636XXSP,2013-05-25 12:15:00,
2013-05-25 08:20:00,36.1,32.7,30.45,West,270,0.0,0.0,88,0.00,,,0.00,WUHU21636XXSP,2013-05-25 12:20:00,
2013-05-25 08:25:00,37.2,33.8,30.45,West,270,0.0,0.0,88,0.00,,,0.00,WUHU21636XXSP,2013-05-25 12:25:00,
2013-05-25 08:30:00,37.9,34.5,30.45,West,270,0.0,0.0,88,0.00,,,0.00,WUHU21636XXSP,2013-05-25 12:30:00,
2013-05-25 08:35:00,38.3,34.9,30.46,West,270,0.0,0.0,88,0.00,,,0.00,WUHU21636XXSP,2013-05-25 12:35:00,
2013-05-25 08:40:00,39.0,35.6,30.45,West,270,0.0,0.0,88,0.00,,,0.00,WUHU21636XXSP,2013-05-25 12:40:00,
2013-05-25 08:45:00,39.9,36.9,30.45,West,270,0.0,0.0,88,0.00,,,0.00,WUHU21636XXSP,2013-05-25 12:45:00,
2013-05-25 08:50:00,40.8,37.4,30.45,West,270,0.0,0.0,88,0.00,,,0.00,WUHU21636XXSP,2013-05-25 12:50:00,
2013-05-25 08:55:00,41.9,38.5,30.45,SSE,157,0.0,0.0,88,0.00,,,0.00,WUHU21636XXSP,2013-05-25 12:55:00,
2013-05-25 09:00:00,42.8,39.4,30.45,South,180,0.0,0.0,88,0.00,,,0.00,WUHU21636XXSP,2013-05-25 13:00:00,
2013-05-25 09:05:00,44.4,41.4,30.46,SSE,157,4.0,4.0,89,0.00,,,0.00,WUHU21636XXSP,2013-05-25 13:05:00,
2013-05-25 09:10:00,45.0,41.5,30.47,SE,135,0.0,7.9,88,0.00,,,0.00,WUHU21636XXSP,2013-05-25 13:10:00,
2013-05-25 09:15:00,45.7,41.7,30.47,SE,135,3.3,7.9,86,0.00,,,0.00,WUHU21636XXSP,2013-05-25 13:15:00,
2013-05-25 09:20:00,46.9,40.3,30.47,North,0,0.0,3.3,78,0.00,,,0.00,WUHU21636XXSP,2013-05-25 13:20:00,
2013-05-25 09:25:00,47.8,40.8,30.47,NW,315,0.0,0.0,77,0.00,,,0.00,WUHU21636XXSP,2013-05-25 13:25:00,
2013-05-25 09:30:00,48.4,40.3,30.47,WNW,292,0.0,0.0,74,0.00,,,0.00,WUHU21636XXSP,2013-05-25 13:30:00,
2013-05-25 09:35:00,49.8,41.7,30.47,WNW,292,0.0,0.0,74,0.00,,,0.00,WUHU21636XXSP,2013-05-25 13:35:00,
2013-05-25 09:40:00,50.5,42.1,30.47,WNW,292,0.0,0.0,73,0.00,,,0.00,WUHU21636XXSP,2013-05-25 13:40:00,
2013-05-25 09:45:00,51.1,41.7,30.47,WNW,292,0.0,0.0,70,0.00,,,0.00,WUHU21636XXSP,2013-05-25 13:45:00,
2013-05-25 09:50:00,51.1,40.8,30.47,NW,315,0.0,0.4,66,0.00,,,0.00,WUHU21636XXSP,2013-05-25 13:50:00,
2013-05-25 09:55:00,51.4,40.8,30.47,NW,315,0.0,0.4,67,0.00,,,0.00,WUHU21636XXSP,2013-05-25 13:55:00,
2013-05-25 10:00:00,52.0,41.4,30.47,WSW,247,0.0,0.0,67,0.00,,,0.00,WUHU21636XXSP,2013-05-25 14:00:00,
2013-05-25 10:05:00,52.5,41.4,30.47,WNW,292,3.3,3.3,66,0.00,,,0.00,WUHU21636XXSP,2013-05-25 14:05:00,
2013-05-25 10:10:00,52.5,41.4,30.47,WNW,292,0.0,3.3,66,0.00,,,0.00,WUHU21636XXSP,2013-05-25 14:10:00,
2013-05-25 10:15:00,53.2,41.2,30.47,WNW,292,0.0,3.3,64,0.00,,,0.00,WUHU21636XXSP,2013-05-25 14:15:00,
2013-05-25 10:20:00,53.8,41.7,30.47,NW,315,0.6,2.4,64,0.00,,,0.00,WUHU21636XXSP,2013-05-25 14:20:00,
2013-05-25 10:25:00,54.1,42.4,30.47,NW,315,0.0,2.4,65,0.00,,,0.00,WUHU21636XXSP,2013-05-25 14:25:00,
2013-05-25 10:30:00,55.0,41.7,30.46,WNW,292,0.0,2.2,61,0.00,,,0.00,WUHU21636XXSP,2013-05-25 14:30:00,
2013-05-25 10:35:00,55.0,40.6,30.45,NNW,337,2.2,4.2,58,0.00,,,0.00,WUHU21636XXSP,2013-05-25 14:35:00,
2013-05-25 10:40:00,55.2,42.3,30.45,West,270,2.2,4.2,62,0.00,,,0.00,WUHU21636XXSP,2013-05-25 14:40:00,
2013-05-25 10:45:00,55.8,41.5,30.45,SSE,157,0.0,2.2,59,0.00,,,0.00,WUHU21636XXSP,2013-05-25 14:45:00,
2013-05-25 10:50:00,56.7,41.5,30.45,SSE,157,0.0,2.2,57,0.00,,,0.00,WUHU21636XXSP,2013-05-25 14:50:00,
2013-05-25 10:55:00,57.7,41.5,30.45,NNW,337,0.0,0.0,55,0.00,,,0.00,WUHU21636XXSP,2013-05-25 14:55:00,
2013-05-25 11:00:00,57.7,40.6,30.45,SE,135,4.6,6.7,53,0.00,,,0.00,WUHU21636XXSP,2013-05-25 15:00:00,
2013-05-25 11:05:00,57.7,41.5,30.44,SE,135,0.0,6.7,53,0.00,,,0.00,WUHU21636XXSP,2013-05-25 15:05:00,
2013-05-25 11:10:00,58.1,42.1,30.44,ENE,67,0.0,4.6,55,0.00,,,0.00,WUHU21636XXSP,2013-05-25 15:10:00,
2013-05-25 11:15:00,59.0,40.8,30.44,SE,135,2.6,2.6,51,0.00,,,0.00,WUHU21636XXSP,2013-05-25 15:15:00,
2013-05-25 11:20:00,58.9,40.8,30.43,ENE,67,0.0,3.1,51,0.00,,,0.00,WUHU21636XXSP,2013-05-25 15:20:00,
2013-05-25 11:25:00,59.5,39.2,30.43,West,270,1.7,3.3,47,0.00,,,0.00,WUHU21636XXSP,2013-05-25 15:25:00,
2013-05-25 11:30:00,59.5,40.8,30.43,WNW,292,2.9,8.0,50,0.00,,,0.00,WUHU21636XXSP,2013-05-25 15:30:00,
2013-05-25 11:35:00,60.1,40.8,30.43,SE,135,4.0,8.0,48,0.00,,,0.00,WUHU21636XXSP,2013-05-25 15:35:00,
2013-05-25 11:40:00,60.1,38.5,30.44,SSE,157,5.5,7.8,45,0.00,,,0.00,WUHU21636XXSP,2013-05-25 15:40:00,
2013-05-25 11:45:00,59.9,39.0,30.43,SE,135,0.0,5.5,46,0.00,,,0.00,WUHU21636XXSP,2013-05-25 15:45:00,
2013-05-25 11:50:00,60.4,39.4,30.44,SE,135,2.6,5.5,46,0.00,,,0.00,WUHU21636XXSP,2013-05-25 15:50:00,
2013-05-25 11:55:00,60.8,38.5,30.44,NNW,337,0.0,2.6,44,0.00,,,0.00,WUHU21636XXSP,2013-05-25 15:55:00,
2013-05-25 12:00:00,60.8,40.3,30.44,NE,45,0.0,1.7,47,0.00,,,0.00,WUHU21636XXSP,2013-05-25 16:00:00,
2013-05-25 12:05:00,60.4,41.7,30.44,North,0,0.0,7.6,50,0.00,,,0.00,WUHU21636XXSP,2013-05-25 16:05:00,
2013-05-25 12:10:00,60.4,41.7,30.44,NW,315,0.0,7.6,46,0.00,,,0.00,WUHU21636XXSP,2013-05-25 16:10:00,
2013-05-25 12:15:00,60.8,39.7,30.44,NW,315,0.0,6.4,46,0.00,,,0.00,WUHU21636XXSP,2013-05-25 16:15:00,
2013-05-25 12:20:00,60.6,40.6,30.42,North,0,2.0,10.7,48,0.00,,,0.00,WUHU21636XXSP,2013-05-25 16:20:00,
2013-05-25 12:25:00,60.6,41.2,30.42,NNW,337,2.9,10.7,49,0.00,,,0.00,WUHU21636XXSP,2013-05-25 16:25:00,
2013-05-25 12:30:00,61.2,41.2,30.42,NE,45,3.3,3.3,43,0.00,,,0.00,WUHU21636XXSP,2013-05-25 16:30:00,
2013-05-25 12:35:00,61.3,40.8,30.42,West,270,0.8,3.8,43,0.00,,,0.00,WUHU21636XXSP,2013-05-25 16:35:00,
2013-05-25 12:40:00,61.2,39.4,30.42,SE,135,5.5,5.5,45,0.00,,,0.00,WUHU21636XXSP,2013-05-25 16:40:00,
2013-05-25 12:45:00,61.3,41.4,30.42,WNW,292,0.0,5.5,45,0.00,,,0.00,WUHU21636XXSP,2013-05-25 16:45:00,
2013-05-25 12:50:00,60.8,40.3,30.42,NNE,22,2.9,4.9,47,0.00,,,0.00,WUHU21636XXSP,2013-05-25 16:50:00,
2013-05-25 12:55:00,61.2,38.8,30.42,NE,45,0.0,4.9,44,0.00,,,0.00,WUHU21636XXSP,2013-05-25 16:55:00,
2013-05-25 13:00:00,61.2,39.4,30.42,NW,315,5.8,8.9,45,0.00,,,0.00,WUHU21636XXSP,2013-05-25 17:00:00,
2013-05-25 13:05:00,61.7,37.6,30.42,South,180,0.0,14.5,41,0.00,,,0.00,WUHU21636XXSP,2013-05-25 17:05:00,
2013-05-25 13:10:00,62.2,39.2,30.42,NW,315,6.0,14.5,41,0.00,,,0.00,WUHU21636XXSP,2013-05-25 17:10:00,
2013-05-25 13:15:00,62.2,41.5,30.42,NNW,337,3.5,7.8,41,0.00,,,0.00,WUHU21636XXSP,2013-05-25 17:15:00,
2013-05-25 13:20:00,62.4,41.7,30.41,NW,315,3.8,6.9,47,0.00,,,0.00,WUHU21636XXSP,2013-05-25 17:20:00,
2013-05-25 13:25:00,62.2,38.7,30.41,NW,315,7.8,13.4,42,0.00,,,0.00,WUHU21636XXSP,2013-05-25 17:25:00,
2013-05-25 13:30:00,60.1,37.9,30.41,NW,315,7.3,16.5,44,0.00,,,0.00,WUHU21636XXSP,2013-05-25 17:30:00,
2013-05-25 13:35:00,61.3,39.6,30.41,NW,315,0.4,24.6,46,0.00,,,0.00,WUHU21636XXSP,2013-05-25 17:35:00,
2013-05-25 13:40:00,62.2,42.1,30.41,West,270,0.0,24.6,48,0.00,,,0.00,WUHU21636XXSP,2013-05-25 17:40:00,
2013-05-25 13:45:00,62.2,39.2,30.41,NE,45,2.0,14.9,43,0.00,,,0.00,WUHU21636XXSP,2013-05-25 17:45:00,
2013-05-25 13:50:00,62.4,40.6,30.40,NW,315,8.2,16.3,45,0.00,,,0.00,WUHU21636XXSP,2013-05-25 17:50:00,
2013-05-25 13:55:00,62.1,37.9,30.41,North,0,8.5,16.3,41,0.00,,,0.00,WUHU21636XXSP,2013-05-25 17:55:00,
2013-05-25 14:00:00,62.4,40.6,30.40,NW,315,3.8,16.7,47,0.00,,,0.00,WUHU21636XXSP,2013-05-25 18:00:00,
2013-05-25 14:05:00,62.4,41.7,30.40,NW,315,6.0,16.7,47,0.00,,,0.00,WUHU21636XXSP,2013-05-25 18:05:00,
2013-05-25 14:10:00,62.4,38.8,30.40,NNW,337,0.6,14.3,42,0.00,,,0.00,WUHU21636XXSP,2013-05-25 18:10:00,
2013-05-25 14:15:00,63.1,37.6,30.40,NW,315,6.4,14.3,39,0.00,,,0.00,WUHU21636XXSP,2013-05-25 18:15:00,
2013-05-25 14:20:00,61.9,37.8,30.40,NW,315,0.0,10.0,41,0.00,,,0.00,WUHU21636XXSP,2013-05-25 18:20:00,
2013-05-25 14:25:00,63.1,38.8,30.40,WNW,292,0.0,10.2,41,0.00,,,0.00,WUHU21636XXSP,2013-05-25 18:25:00,
2013-05-25 14:30:00,62.6,36.5,30.40,NW,315,2.0,12.9,38,0.00,,,0.00,WUHU21636XXSP,2013-05-25 18:30:00,
2013-05-25 14:35:00,62.4,38.3,30.40,SSE,157,1.7,12.9,41,0.00,,,0.00,WUHU21636XXSP,2013-05-25 18:35:00,
2013-05-25 14:40:00,63.7,36.7,30.40,NW,315,0.8,2.6,38,0.00,,,0.00,WUHU21636XXSP,2013-05-25 18:40:00,
2013-05-25 14:45:00,63.7,37.4,30.40,ESE,112,0.0,2.6,38,0.00,,,0.00,WUHU21636XXSP,2013-05-25 18:45:00,
2013-05-25 14:50:00,63.7,41.4,30.40,WNW,292,0.0,14.0,43,0.00,,,0.00,WUHU21636XXSP,2013-05-25 18:50:00,
2013-05-25 14:55:00,64.4,39.6,30.40,SSE,157,0.0,14.0,40,0.00,,,0.00,WUHU21636XXSP,2013-05-25 18:55:00,
2013-05-25 15:00:00,64.8,40.5,30.40,NNW,337,16.5,18.5,41,0.00,,,0.00,WUHU21636XXSP,2013-05-25 19:00:00,
2013-05-25 15:05:00,64.0,42.6,30.40,NE,45,1.1,18.5,46,0.00,,,0.00,WUHU21636XXSP,2013-05-25 19:05:00,
2013-05-25 15:10:00,63.7,42.3,30.40,NE,45,2.0,19.9,46,0.00,,,0.00,WUHU21636XXSP,2013-05-25 19:10:00,
2013-05-25 15:15:00,63.9,43.0,30.40,NNW,337,0.0,19.9,47,0.00,,,0.00,WUHU21636XXSP,2013-05-25 19:15:00,
2013-05-25 15:20:00,64.0,43.2,30.40,WNW,292,1.1,3.8,47,0.00,,,0.00,WUHU21636XXSP,2013-05-25 19:20:00,
2013-05-25 15:25:00,63.5,42.3,30.40,ENE,67,1.5,6.4,46,0.00,,,0.00,WUHU21636XXSP,2013-05-25 19:25:00,
2013-05-25 15:30:00,64.0,43.7,30.40,NNW,337,1.5,7.6,48,0.00,,,0.00,WUHU21636XXSP,2013-05-25 19:30:00,
2013-05-25 15:35:00,64.0,42.6,30.40,SE,135,4.6,7.6,46,0.00,,,0.00,WUHU21636XXSP,2013-05-25 19:35:00,
2013-05-25 15:40:00,63.5,40.8,30.40,NNW,337,10.9,16.5,47,0.00,,,0.00,WUHU21636XXSP,2013-05-25 19:40:00,
2013-05-25 15:45:00,62.8,42.1,30.40,NNE,22,0.0,17.8,47,0.00,,,0.00,WUHU21636XXSP,2013-05-25 19:45:00,
2013-05-25 15:50:00,63.1,41.2,30.40,WNW,292,1.7,17.8,45,0.00,,,0.00,WUHU21636XXSP,2013-05-25 19:50:00,
2013-05-25 15:55:00,63.5,43.3,30.40,NE,45,0.0,6.9,48,0.00,,,0.00,WUHU21636XXSP,2013-05-25 19:55:00,
2013-05-25 16:00:00,63.5,44.4,30.39,NNE,22,1.1,4.6,50,0.00,,,0.00,WUHU21636XXSP,2013-05-25 20:00:00,
2013-05-25 16:05:00,63.9,41.4,30.39,North,0,6.4,13.8,44,0.00,,,0.00,WUHU21636XXSP,2013-05-25 20:05:00,
2013-05-25 16:10:00,63.9,42.4,30.39,NNW,337,0.0,13.8,46,0.00,,,0.00,WUHU21636XXSP,2013-05-25 20:10:00,
2013-05-25 16:15:00,64.0,42.6,30.39,NNE,22,0.0,9.1,46,0.00,,,0.00,WUHU21636XXSP,2013-05-25 20:15:00,
2013-05-25 16:20:00,64.4,42.4,30.39,NNW,337,6.4,9.1,45,0.00,,,0.00,WUHU21636XXSP,2013-05-25 20:20:00,
2013-05-25 16:25:00,64.0,39.7,30.40,NNW,337,1.1,12.5,41,0.00,,,0.00,WUHU21636XXSP,2013-05-25 20:25:00,
2013-05-25 16:30:00,63.3,43.0,30.39,NW,315,2.4,20.5,48,0.00,,,0.00,WUHU21636XXSP,2013-05-25 20:30:00,
2013-05-25 16:35:00,63.5,42.1,30.39,WSW,247,2.0,20.5,46,0.00,,,0.00,WUHU21636XXSP,2013-05-25 20:35:00,
2013-05-25 16:40:00,63.7,38.8,30.39,North,0,6.4,15.4,40,0.00,,,0.00,WUHU21636XXSP,2013-05-25 20:40:00,
2013-05-25 16:45:00,63.5,40.5,30.39,NNW,337,8.9,16.1,43,0.00,,,0.00,WUHU21636XXSP,2013-05-25 20:45:00,
2013-05-25 16:50:00,63.0,40.3,30.39,NNW,337,7.1,16.1,46,0.00,,,0.00,WUHU21636XXSP,2013-05-25 20:50:00,
2013-05-25 16:55:00,63.0,39.2,30.39,NW,315,8.0,17.4,42,0.00,,,0.00,WUHU21636XXSP,2013-05-25 20:55:00,
2013-05-25 17:00:00,62.2,42.1,30.39,NNW,337,2.2,17.4,48,0.00,,,0.00,WUHU21636XXSP,2013-05-25 21:00:00,
2013-05-25 17:05:00,62.4,39.4,30.39,NNW,337,4.4,17.0,43,0.00,,,0.00,WUHU21636XXSP,2013-05-25 21:05:00,
2013-05-25 17:10:00,63.1,39.9,30.38,NW,315,7.3,15.6,41,0.00,,,0.00,WUHU21636XXSP,2013-05-25 21:10:00,
2013-05-25 17:15:00,62.4,40.6,30.38,NNW,337,9.6,17.8,45,0.00,,,0.00,WUHU21636XXSP,2013-05-25 21:15:00,
2013-05-25 17:20:00,61.9,39.6,30.38,NNW,337,8.5,17.8,44,0.00,,,0.00,WUHU21636XXSP,2013-05-25 21:20:00,
2013-05-25 17:25:00,62.2,40.6,30.38,NNW,337,1.5,16.3,45,0.00,,,0.00,WUHU21636XXSP,2013-05-25 21:25:00,
2013-05-25 17:30:00,63.3,41.4,30.38,NNW,337,3.8,14.0,45,0.00,,,0.00,WUHU21636XXSP,2013-05-25 21:30:00,
2013-05-25 17:35:00,63.3,39.0,30.38,NW,315,10.0,14.0,41,0.00,,,0.00,WUHU21636XXSP,2013-05-25 21:35:00,
2013-05-25 17:40:00,63.1,40.6,30.38,NNW,337,6.4,14.0,44,0.00,,,0.00,WUHU21636XXSP,2013-05-25 21:40:00,
2013-05-25 17:45:00,63.5,41.0,30.38,West,270,0.0,12.5,44,0.00,,,0.00,WUHU21636XXSP,2013-05-25 21:45:00,
2013-05-25 17:50:00,63.5,41.5,30.38,NNW,337,7.6,17.6,45,0.00,,,0.00,WUHU21636XXSP,2013-05-25 21:50:00,
2013-05-25 17:55:00,63.7,39.9,30.38,SSE,157,0.0,31.0,47,0.00,,,0.00,WUHU21636XXSP,2013-05-25 21:55:00,
2013-05-25 18:00:00,63.7,41.7,30.38,NW,315,1.1,31.0,45,0.00,,,0.00,WUHU21636XXSP,2013-05-25 22:00:00,
2013-05-25 18:05:00,63.3,43.2,30.38,NNW,337,4.6,11.8,48,0.00,,,0.00,WUHU21636XXSP,2013-05-25 22:05:00,
2013-05-25 18:10:00,63.1,40.1,30.38,NNW,337,6.4,12.5,43,0.00,,,0.00,WUHU21636XXSP,2013-05-25 22:10:00,
2013-05-25 18:15:00,63.5,39.7,30.38,NNW,337,0.0,14.0,42,0.00,,,0.00,WUHU21636XXSP,2013-05-25 22:15:00,
2013-05-25 18:20:00,63.5,39.2,30.37,ENE,67,0.0,14.0,41,0.00,,,0.00,WUHU21636XXSP,2013-05-25 22:20:00,
2013-05-25 18:25:00,63.7,39.4,30.37,NW,315,0.0,10.9,42,0.00,,,0.00,WUHU21636XXSP,2013-05-25 22:25:00,
2013-05-25 18:30:00,63.1,38.3,30.38,NNW,337,1.3,10.9,40,0.00,,,0.00,WUHU21636XXSP,2013-05-25 22:30:00,
2013-05-25 18:35:00,63.1,38.3,30.37,NNW,337,2.4,10.0,40,0.00,,,0.00,WUHU21636XXSP,2013-05-25 22:35:00,
2013-05-25 18:40:00,63.1,39.6,30.37,NW,315,0.0,4.0,42,0.00,,,0.00,WUHU21636XXSP,2013-05-25 22:40:00,
2013-05-25 18:45:00,63.7,40.6,30.37,NW,315,3.1,7.3,43,0.00,,,0.00,WUHU21636XXSP,2013-05-25 22:45:00,
2013-05-25 18:50:00,64.0,42.1,30.37,NNW,337,4.6,11.4,45,0.00,,,0.00,WUHU21636XXSP,2013-05-25 22:50:00,
2013-05-25 18:55:00,62.4,37.0,30.36,NW,315,7.8,13.4,39,0.00,,,0.00,WUHU21636XXSP,2013-05-25 22:55:00,
2013-05-25 19:00:00,62.8,39.7,30.37,NNW,337,0.0,13.4,43,0.00,,,0.00,WUHU21636XXSP,2013-05-25 23:00:00,
2013-05-25 19:05:00,63.3,37.8,30.37,North,0,0.0,8.7,39,0.00,,,0.00,WUHU21636XXSP,2013-05-25 23:05:00,
2013-05-25 19:10:00,63.3,40.3,30.37,NNW,337,0.0,29.5,43,0.00,,,0.00,WUHU21636XXSP,2013-05-25 23:10:00,
2013-05-25 19:15:00,63.7,37.4,30.37,NNW,337,0.0,29.5,38,0.00,,,0.00,WUHU21636XXSP,2013-05-25 23:15:00,
2013-05-25 19:20:00,64.0,38.8,30.37,NW,315,1.3,15.4,40,0.00,,,0.00,WUHU21636XXSP,2013-05-25 23:20:00,
2013-05-25 19:25:00,63.7,38.8,30.37,NNW,337,0.8,15.4,41,0.00,,,0.00,WUHU21636XXSP,2013-05-25 23:25:00,
2013-05-25 19:30:00,63.3,38.5,30.36,NNW,337,0.0,3.3,40,0.00,,,0.00,WUHU21636XXSP,2013-05-25 23:30:00,
2013-05-25 19:35:00,63.1,38.5,30.36,NW,315,0.0,3.3,43,0.00,,,0.00,WUHU21636XXSP,2013-05-25 23:35:00,
2013-05-25 19:40:00,63.3,39.6,30.36,NW,315,0.4,0.4,39,0.00,,,0.00,WUHU21636XXSP,2013-05-25 23:40:00,
2013-05-25 19:45:00,63.1,39.6,30.36,NW,315,0.0,0.4,41,0.00,,,0.00,WUHU21636XXSP,2013-05-25 23:45:00,
2013-05-25 19:50:00,63.0,39.4,30.36,North,0,0.0,2.2,42,0.00,,,0.00,WUHU21636XXSP,2013-05-25 23:50:00,
2013-05-25 19:55:00,62.8,39.7,30.36,NNW,337,0.0,2.2,41,0.00,,,0.00,WUHU21636XXSP,2013-05-25 23:55:00,
2013-05-25 20:00:00,62.2,39.9,30.36,NNW,337,0.0,0.0,44,0.00,,,0.00,WUHU21636XXSP,2013-05-26 00:00:00,
2013-05-25 20:05:00,62.2,40.5,30.36,NNW,337,0.0,0.0,45,0.00,,,0.00,WUHU21636XXSP,2013-05-26 00:05:00,
2013-05-25 20:10:00,61.3,39.0,30.36,NNW,337,3.1,3.5,44,0.00,,,0.00,WUHU21636XXSP,2013-05-26 00:10:00,
2013-05-25 20:15:00,60.8,39.2,30.36,North,0,0.0,3.5,45,0.00,,,0.00,WUHU21636XXSP,2013-05-26 00:15:00,
2013-05-25 20:20:00,60.1,39.0,30.36,NNW,337,1.1,3.1,46,0.00,,,0.00,WUHU21636XXSP,2013-05-26 00:20:00,
2013-05-25 20:25:00,59.5,39.2,30.35,NNW,337,1.5,3.8,47,0.00,,,0.00,WUHU21636XXSP,2013-05-26 00:25:00,
2013-05-25 20:30:00,59.2,39.4,30.35,NNW,337,0.0,3.8,48,0.00,,,0.00,WUHU21636XXSP,2013-05-26 00:30:00,
2013-05-25 20:35:00,59.4,41.7,30.35,NNW,337,0.0,1.5,52,0.00,,,0.00,WUHU21636XXSP,2013-05-26 00:35:00,
2013-05-25 20:44:00,59.0,40.4,30.35,NNW,337,0.0,0.0,50,0.00,,,0.00,WUHU21636XXSP,2013-05-26 00:44:00,
2013-05-25 20:49:00,58.6,39.6,30.35,NNW,337,0.0,0.0,49,0.00,,,0.00,WUHU21636XXSP,2013-05-26 00:49:00,
2013-05-25 20:54:00,57.9,38.8,30.35,NNW,337,0.0,0.0,49,0.00,,,0.00,WUHU21636XXSP,2013-05-26 00:54:00,
2013-05-25 20:59:00,56.7,37.7,30.35,NNW,337,0.0,0.0,49,0.00,,,0.00,WUHU21636XXSP,2013-05-26 00:59:00,
2013-05-25 21:04:00,55.9,37.6,30.35,NNW,337,0.0,0.0,50,0.00,,,0.00,WUHU21636XXSP,2013-05-26 01:04:00,
2013-05-25 21:09:00,55.0,37.0,30.35,NNW,337,0.0,0.0,51,0.00,,,0.00,WUHU21636XXSP,2013-05-26 01:09:00,
2013-05-25 21:14:00,53.6,39.0,30.35,NNW,337,0.0,0.0,58,0.00,,,0.00,WUHU21636XXSP,2013-05-26 01:14:00,
2013-05-25 21:19:00,52.0,38.5,30.35,NNW,337,0.0,0.0,60,0.00,,,0.00,WUHU21636XXSP,2013-05-26 01:19:00,
2013-05-25 21:24:00,51.4,37.4,30.35,NNW,337,0.0,0.0,59,0.00,,,0.00,WUHU21636XXSP,2013-05-26 01:24:00,
2013-05-25 21:29:00,50.9,36.5,30.35,NNW,337,0.0,0.0,58,0.00,,,0.00,WUHU21636XXSP,2013-05-26 01:29:00,
2013-05-25 21:34:00,50.2,36.7,30.35,NNW,337,0.0,0.0,60,0.00,,,0.00,WUHU21636XXSP,2013-05-26 01:34:00,
2013-05-25 21:39:00,49.6,36.3,30.35,NNW,337,0.0,0.0,60,0.00,,,0.00,WUHU21636XXSP,2013-05-26 01:39:00,
2013-05-25 21:44:00,48.9,36.0,30.35,NNW,337,0.0,0.0,61,0.00,,,0.00,WUHU21636XXSP,2013-05-26 01:44:00,
2013-05-25 21:49:00,47.8,36.9,30.35,NNW,337,0.0,0.0,66,0.00,,,0.00,WUHU21636XXSP,2013-05-26 01:49:00,
2013-05-25 21:54:00,47.1,36.1,30.35,NNW,337,0.0,0.0,66,0.00,,,0.00,WUHU21636XXSP,2013-05-26 01:54:00,
2013-05-25 21:59:00,46.8,37.0,30.35,NNW,337,0.0,15.4,70,0.00,,,0.00,WUHU21636XXSP,2013-05-26 01:59:00,
2013-05-25 22:04:00,45.9,35.8,30.35,NNW,337,0.0,15.4,68,0.00,,,0.00,WUHU21636XXSP,2013-05-26 02:04:00,
2013-05-25 22:09:00,45.5,36.5,30.35,NNW,337,0.0,0.0,71,0.00,,,0.00,WUHU21636XXSP,2013-05-26 02:09:00,
2013-05-25 22:14:00,45.1,36.1,30.36,NNW,337,0.0,0.0,71,0.00,,,0.00,WUHU21636XXSP,2013-05-26 02:14:00,
2013-05-25 22:19:00,44.8,36.1,30.36,NNW,337,0.0,0.0,72,0.00,,,0.00,WUHU21636XXSP,2013-05-26 02:19:00,
2013-05-25 22:24:00,44.2,36.7,30.36,NNW,337,0.0,0.0,75,0.00,,,0.00,WUHU21636XXSP,2013-05-26 02:24:00,
2013-05-25 22:29:00,43.9,36.0,30.36,NNW,337,0.0,0.0,73,0.00,,,0.00,WUHU21636XXSP,2013-05-26 02:29:00,
2013-05-25 22:34:00,43.3,35.6,30.36,NNW,337,0.0,0.0,74,0.00,,,0.00,WUHU21636XXSP,2013-05-26 02:34:00,
2013-05-25 22:39:00,42.8,35.1,30.36,NNW,337,0.0,0.0,74,0.00,,,0.00,WUHU21636XXSP,2013-05-26 02:39:00,
2013-05-25 22:44:00,42.4,34.7,30.36,NNW,337,0.0,0.0,74,0.00,,,0.00,WUHU21636XXSP,2013-05-26 02:44:00,
2013-05-25 22:49:00,41.9,34.5,30.36,NNW,337,0.0,6.9,75,0.00,,,0.00,WUHU21636XXSP,2013-05-26 02:49:00,
2013-05-25 22:54:00,41.5,34.2,30.37,NNW,337,0.0,6.9,75,0.00,,,0.00,WUHU21636XXSP,2013-05-26 02:54:00,
2013-05-25 22:59:00,41.2,33.8,30.37,NNW,337,0.0,0.0,75,0.00,,,0.00,WUHU21636XXSP,2013-05-26 02:59:00,
2013-05-25 23:04:00,40.8,33.6,30.37,NNW,337,0.0,0.0,77,0.00,,,0.00,WUHU21636XXSP,2013-05-26 03:04:00,
2013-05-25 23:09:00,40.6,33.8,30.37,NNW,337,0.0,0.0,76,0.00,,,0.00,WUHU21636XXSP,2013-05-26 03:09:00,
2013-05-25 23:14:00,40.1,33.3,30.37,NNW,337,0.0,0.0,77,0.00,,,0.00,WUHU21636XXSP,2013-05-26 03:14:00,
2013-05-25 23:19:00,39.7,33.3,30.36,NNW,337,0.0,0.0,78,0.00,,,0.00,WUHU21636XXSP,2013-05-26 03:19:00,
2013-05-25 23:24:00,39.6,33.4,30.36,NNW,337,0.0,0.0,79,0.00,,,0.00,WUHU21636XXSP,2013-05-26 03:24:00,
2013-05-25 23:29:00,39.6,33.4,30.36,NNW,337,0.0,0.0,82,0.00,,,0.00,WUHU21636XXSP,2013-05-26 03:29:00,
2013-05-25 23:34:00,39.4,34.9,30.37,NNW,337,0.0,0.0,84,0.00,,,0.00,WUHU21636XXSP,2013-05-26 03:34:00,
2013-05-25 23:39:00,39.4,34.9,30.36,NNW,337,0.0,0.0,83,0.00,,,0.00,WUHU21636XXSP,2013-05-26 03:39:00,
2013-05-25 23:44:00,39.2,34.3,30.36,NNW,337,0.0,0.0,83,0.00,,,0.00,WUHU21636XXSP,2013-05-26 03:44:00,
2013-05-25 23:49:00,38.8,34.0,30.36,NNW,337,0.0,0.0,83,0.00,,,0.00,WUHU21636XXSP,2013-05-26 03:49:00,
2013-05-25 23:54:00,38.5,33.4,30.36,NNW,337,0.0,0.0,82,0.00,,,0.00,WUHU21636XXSP,2013-05-26 03:54:00,
2013-05-25 23:59:00,38.3,33.4,30.37,NNW,337,0.0,0.0,85,0.00,,,0.00,WUHU21636XXSP,2013-05-26 03:59:00,